Home   Weather   Stäfa   Past weeks

Flag for Switzerland Past Weather in Stäfa, Zurich, Switzerland — Yesterday and Last 2 Weeks

Now
90 °F

Hot.


Feels Like: 87 °F
Forecast: 64 / 85 °F
Wind: 7 mph from West

Location: Zuerich-Fluntern

Current Time: Jun 22, 2017 at 4:15:42 pm

Latest Report: Jun 22, 2017 at 3:00 pm


Visibility: N/A

Pressure: 29.90 "Hg

Humidity: 28%

Dew Point: 53 °F

Location of StäfaLocation

Past Weather in Stäfa — Graph

°F

Stäfa Temperature Yesterday

Maximum temperature yesterday: 89 °F (at 3:00 pm)
Minimum temperature yesterday: 69 °F (at 6:00 am)
Average temperature yesterday: 78 °F

High & Low Weather Summary for the Past Weeks

 TemperatureHumidityPressure
High89 °F (Jun 20, 5:00 pm)96% (Jun 16, 2:00 am)30.30 "Hg (Jun 16, 2:00 am)
Low47 °F (Jun 8, 6:00 am)23% (Jun 8, 3:00 pm)29.88 "Hg (Jun 21, 7:00 pm)
Average69 °F59%30.06 "Hg
* Reported Jun 7 2:00 pm — Jun 22 2:00 pm, Stäfa. Weather by CustomWeather, © 2017

Note: Actual official high and low records may vary slightly from our data, if they occured in-between our weather recording intervals... More about our weather records

Advertising

Stäfa Weather History for the Previous 24 Hours

Scroll right to see more
 ConditionsComfort  
Time TempWeatherWind HumidityBarometerVisibility
2:00 pm
Thu, Jun 22
88 °FPassing clouds.5 mph23%29.93 "HgN/A
1:00 pm87 °FPleasantly warm.6 mph36%29.93 "HgN/A
12:00 pm84 °FWarm.2 mph43%29.96 "HgN/A
11:00 am82 °FWarm.3 mph48%29.98 "HgN/A
10:00 am78 °FWarm.2 mph55%29.99 "HgN/A
9:00 am74 °FMild.2 mph67%30.01 "HgN/A
8:00 am72 °FMild.1 mph74%30.02 "HgN/A
7:00 am69 °FMild.1 mph80%30.02 "HgN/A
6:00 am69 °FMild.No wind81%30.01 "HgN/A
5:00 am69 °FMild.2 mph79%30.00 "HgN/A
4:00 am70 °FMild.No wind73%30.00 "HgN/A
3:00 am71 °FMild.1 mph66%30.00 "HgN/A
2:00 am72 °FMild.No wind59%30.00 "HgN/A
9:00 pm
Wed, Jun 21
80 °FWarm.2 mph56%29.92 "HgN/A
8:00 pm85 °FWarm.3 mph45%29.90 "HgN/A
7:00 pm86 °FWarm.5 mph44%29.88 "HgN/A
6:00 pm85 °FWarm.5 mph46%29.88 "HgN/A
5:00 pm85 °FWarm.5 mph44%29.89 "HgN/A
4:00 pm84 °FPleasantly warm.2 mph40%29.90 "HgN/A
Weather by CustomWeather, © 2017

See weather overviewHow to use our weather pages